Location: Northcutt
(34.7304°N, 84.4305°W)
Time: 20:51:39
(UTC+00:00)

A-11 Canister half - Pass Details

Date: 10 October 2022
Orbit: 1524 x 1685 km, 47.3° (Epoch: 05 December)

Event Time Altitude Azimuth Distance (km) Brightness Sun altitude
Rises 01:16:14 0° 305° (NW) 4,698 12.6 -26.5°
Reaches altitude 10° 01:19:15 10° 305° (NW) 3,727 11.8 -27.1°
Maximum altitude 01:28:43 86° 219° (SW) 1,585 8.9 -29.0°
Enters shadow 01:31:36 52° 134° (SE) 1,903 9.1 -29.6°
